Miscellaneous Local Product
Issued by NWS North Platte, NE

Home | Current Version | Previous Version | Graphics & Text | Print | Product List | Glossary On
Versions: 1 2 3 4 5 6 7 8 9 10 11 12 13 14 15 16 17 18 19 20 21 22 23 24 25 26 27 28 29 30 31 32 33 34 35 36 37 38 39 40 41 42 43 44 45 46 47 48 49 50
000
AXUS43 KLBF 101310
MISLBF


WESTERN AND NORTH CENTRAL NEBRASKA HOURLY WEATHER ROUNDUP
NATIONAL WEATHER SERVICE NORTH PLATTE NE
700 AM CST SUN DEC 10 2017

NOTE: "FAIR" INDICATES FEW OR NO CLOUDS BELOW 12,000 FEET WITH NO
SIGNIFICANT WEATHER AND/OR OBSTRUCTIONS TO VISIBILITY.

NOTE: STATIONS NOT REPORTING VARIABLES SUCH AS SKY/WEATHER OR
PRESSURE ARE PROVIDED BY RAWS AND APRS NETWORKS AND ARE NOT UNDER
NATIONAL WEATHER SERVICE QUALITY CONTROL.

...OBSERVATIONS IN AND NEAR THE EASTERN PANHANDLE OF NEBRASKA...

CITY           SKY/WX    TMP DP  RH WIND       PRES   REMARKS
PINE RIDGE     CLOUDY    32  15  49 SW8       30.27R WCI  25
GORDON         FAIR      37  15  40 W17       30.24S WCI  28
CHADRON        CLEAR     37  12  35 SW8       30.29S WCI  31
ALLIANCE       CLOUDY    28  11  48 W14       30.29R WCI  17
SIDNEY         CLEAR     34   8  33 W12       30.33R WCI  25
CRESCENT LAKE    N/A     36   7  29 W12         N/A  WCI  28
$$

...OBSERVATIONS IN NORTHERN NEBRASKA AND FAR SOUTHERN SOUTH DAKOTA...

CITY           SKY/WX    TMP DP  RH WIND       PRES   REMARKS
WINNER         FAIR      42  18  37 W15       30.13R
VALENTINE      CLEAR     35  17  47 W9        30.18R WCI  28
THEDFORD       CLEAR     37  15  39 W13G18    30.21R WCI  29
AINSWORTH      CLEAR     38  18  42 W15       30.15S WCI  30
O`NEILL        CLEAR     41  20  42 NW12      30.11R
ORD            CLEAR     43  15  32 NW13G25   30.13R
BROKEN BOW     CLEAR     43  13  29 NW17      30.17R
VALENTINE NWR    N/A     40  13  33 NW9G17      N/A  WCI  34
HALSEY           N/A     39  12  33 W9          N/A  WCI  33
BUTTE            N/A     39  21  48 NW12        N/A  WCI  32
CHAMBERS         N/A     40  17  40 MISG        N/A
EWING            N/A     39  21  48 NW8         N/A  WCI  33
$$

...OBSERVATIONS IN SOUTHWEST NEBRASKA AND FAR NORTHEAST COLORADO...

CITY           SKY/WX    TMP DP  RH WIND       PRES   REMARKS
WRAY           FAIR      34   5  29 W10       30.33S WCI  26
HOLYOKE        FAIR      34   9  35 W13       30.32R WCI  25
IMPERIAL       CLOUDY    33   8  35 W9        30.29R WCI  25
OGALLALA       CLOUDY    32  13  45 W10       30.29R WCI  23
NORTH PLATTE   CLOUDY    22  14  71 NW8       30.24R WCI  12
MCCOOK         CLEAR     36  12  37 W16       30.26R WCI  26
LEXINGTON      CLEAR     36  13  39 NW17      30.21R WCI  26
STAPLETON        N/A     38  13  35 CALM        N/A
GOTHENBURG       N/A     37  11  34 NW5         N/A  WCI  33
CALLAWAY         N/A     33  15  48 CALM        N/A
$$

...OBSERVATIONS IN CENTRAL LINCOLN COUNTY AREA...

CITY           SKY/WX    TMP DP  RH WIND       PRES   REMARKS
N.P. AIRPORT   CLOUDY    22  14  71 NW8       30.24R WCI  12
N.P. DOWNTOWN    N/A     33  15  48 CALM        N/A
N.P. SOUTHEAST   N/A     34  13  42 MISG        N/A
N.P. HILLCREST   N/A     30  15  52 W5          N/A  WCI  25
$$

...SOME OBSERVATIONS FROM AROUND THE REGION...

CITY           SKY/WX    TMP DP  RH WIND       PRES   REMARKS
DENVER         CLOUDY    34  -4  19 SW13      30.39R WCI  25
GRAND JUNCTION CLOUDY    19   5  54 E6        30.58S WCI  11
LARAMIE        CLOUDY    19   3  49 W12       30.44S WCI   7
CHEYENNE       CLOUDY    32   2  27 N7        30.39R WCI  26
CASPER         CLOUDY    29  14  53 SW24      30.40S WCI  15
BISMARCK       CLOUDY    30  23  75 S8        30.06S WCI  22
RAPID CITY     CLEAR     47   5  18 NW15      30.21R
PIERRE         CLEAR     38  20  48 W9        30.11R WCI  31
SIOUX FALLS    CLOUDY    31  26  82 NW7       30.02R WCI  24
OMAHA          CLOUDY    38  23  55 NW12      30.04R WCI  30
GRAND ISLAND   CLEAR     39  17  41 W10       30.14R WCI  32
SCOTTSBLUFF    CLOUDY    23  10  57 NW8       30.36R WCI  14
KANSAS CITY    CLEAR     28  22  78 SW14      30.06R WCI  17
HILL CITY      CLEAR     41  11  29 W10G21    30.26R
WICHITA        CLEAR     40  16  37 NW18      30.21R WCI  31
DODGE CITY     CLEAR     30   9  41 W13       30.30R WCI  20
OKLAHOMA CITY  CLEAR     29  19  66 SW5       30.29S WCI  24
DALLAS         CLEAR     37  27  67 CALM      30.36R
AMARILLO       CLEAR     32   9  38 W6        30.39S WCI  26
$$




USA.gov is the U.S. government's official web portal to all federal, state and local government web resources and services.